Date String (YYYY-MM-DD hh:mm:ss) UTC,Instrument flags,absolute air pressure of the measurement (hPa),sample flow rate (lpm),inlet stack bypass flow (lpm),air temperature of the measurement (°C),ambient temperature measured by the external sensor (°C),aerosol sample conditioner tube jacket temperature (°C),OPC LED temperature (°C),internal box temperature (°C),relative humidity of the measurement (%),span deviation,mass concentration of particles derived from Lorenz-Mie calculation of OPC scattering (μg/m³),mass concentration of particles derived from Lorenz-Mie calculation of OPC scattering (μg/m³),mass concentration of particles derived from Lorenz-Mie calculation of OPC scattering (μg/m³)
DateTimeUTC,F1_M11,P_M11,Q1_M11,Q2_M11,T1_M11,T2_M11,T3_M11,T4_M11,T5_M11,U1_M11,ZSPAN_M11,X2_M11,X0_M11,X1_M11
2023-10-14 03:00:00,SystemResetWarning,0836.5,5.00,000.00,028.9,027.3,000.0,037.5,030.4,12.9,0000.0,0003.27,0007.28,0002.82
2023-10-14 03:01:00,SystemResetWarning,0836.5,5.00,000.00,028.9,027.3,000.0,037.5,030.3,12.9,0000.0,0003.32,0007.37,0002.88
2023-10-14 03:02:00,SystemResetWarning,0836.5,4.99,000.00,028.9,027.3,000.0,037.4,030.3,12.9,0000.0,0003.36,0008.33,0002.93
2023-10-14 03:03:00,SystemResetWarning,0836.5,5.00,000.00,028.9,027.3,000.0,037.4,030.3,12.9,0000.0,0003.43,0008.18,0002.99
2023-10-14 03:04:00,SystemResetWarning,0836.5,5.01,000.00,028.9,027.3,000.0,037.4,030.3,12.9,0000.0,0003.50,0008.12,0003.07
2023-10-14 03:05:00,SystemResetWarning,0836.5,5.01,000.00,028.9,027.3,000.0,037.4,030.3,12.8,0000.0,0003.55,0008.12,0003.13
2023-10-14 03:06:00,SystemResetWarning,0836.6,5.00,000.00,028.9,027.3,000.0,037.4,030.4,12.9,0000.0,0003.58,0008.21,0003.17
2023-10-14 03:07:00,SystemResetWarning,0836.7,5.00,000.00,028.8,027.4,000.0,037.4,030.4,12.9,0000.0,0003.63,0008.82,0003.22
2023-10-14 03:08:00,SystemResetWarning,0836.7,5.00,000.00,028.9,027.4,000.0,037.4,030.4,12.9,0000.0,0003.67,0009.00,0003.27
2023-10-14 03:09:00,SystemResetWarning,0836.6,5.00,000.00,028.9,027.4,000.0,037.4,030.4,12.9,0000.0,0003.69,0008.97,0003.30
2023-10-14 03:10:00,SystemResetWarning,0836.7,5.00,000.00,028.9,027.4,000.0,037.4,030.4,12.9,0000.0,0003.72,0009.02,0003.34
2023-10-14 03:11:00,SystemResetWarning,0836.7,5.00,000.00,028.9,027.5,000.0,037.4,030.4,12.9,0000.0,0003.75,0009.09,0003.38
2023-10-14 03:12:00,SystemResetWarning,0836.7,5.00,000.00,028.9,027.5,000.0,037.4,030.5,12.9,0000.0,0003.77,0009.09,0003.40
2023-10-14 03:13:00,SystemResetWarning,0836.6,5.00,000.00,028.9,027.5,000.0,037.4,030.5,12.8,0000.0,0003.77,0008.53,0003.42
2023-10-14 03:14:00,SystemResetWarning,0836.6,5.00,000.00,028.9,027.5,000.0,037.4,030.5,12.8,0000.0,0003.75,0008.65,0003.43
2023-10-14 03:15:00,SystemResetWarning,0836.6,5.00,000.00,028.9,027.5,000.0,037.4,030.5,12.8,0000.0,0003.74,0008.81,0003.43
2023-10-14 03:16:00,SystemResetWarning,0836.6,5.00,000.00,028.9,027.5,000.0,037.4,030.5,12.8,0000.0,0003.76,0009.10,0003.43
2023-10-14 03:17:00,SystemResetWarning,0836.6,5.00,000.00,028.9,027.5,000.0,037.4,030.5,12.8,0000.0,0003.80,0009.65,0003.44
2023-10-14 03:18:00,SystemResetWarning,0836.6,5.00,000.00,028.9,027.5,000.0,037.4,030.5,12.8,0000.0,0003.80,0009.17,0003.44
2023-10-14 03:19:00,SystemResetWarning,0836.6,5.00,000.00,029.0,027.5,000.0,037.4,030.5,12.8,0000.0,0003.83,0009.13,0003.45
2023-10-14 03:20:00,SystemResetWarning,0836.6,5.01,000.00,029.0,027.5,000.0,037.4,030.5,12.8,0000.0,0003.85,0009.35,0003.45
2023-10-14 03:21:00,SystemResetWarning,0836.6,5.01,000.00,029.0,027.5,000.0,037.4,030.5,12.8,0000.0,0003.87,0009.41,0003.47
2023-10-14 03:22:00,SystemResetWarning,0836.6,5.01,000.00,029.0,027.5,000.0,037.4,030.5,12.8,0000.0,0003.87,0009.47,0003.48
2023-10-14 03:23:00,SystemResetWarning,0836.6,5.00,000.00,029.0,027.5,000.0,037.4,030.6,12.8,0000.0,0003.87,0009.52,0003.49
2023-10-14 03:24:00,SystemResetWarning,0836.6,4.99,000.00,029.0,027.5,000.0,037.4,030.6,12.8,0000.0,0003.87,0009.35,0003.49
2023-10-14 03:25:00,SystemResetWarning,0836.7,4.99,000.00,029.0,027.5,000.0,037.4,030.6,12.8,0000.0,0003.86,0009.31,0003.49
2023-10-14 03:26:00,SystemResetWarning,0836.7,5.00,000.00,029.0,027.5,000.0,037.4,030.5,12.8,0000.0,0003.87,0009.28,0003.49
2023-10-14 03:27:00,SystemResetWarning,0836.7,5.00,000.00,029.0,027.5,000.0,037.4,030.5,12.8,0000.0,0003.82,0009.06,0003.49
2023-10-14 03:28:00,SystemResetWarning,0836.7,5.00,000.00,029.0,027.5,000.0,037.4,030.5,12.8,0000.0,0003.79,0009.36,0003.48
2023-10-14 03:29:00,SystemResetWarning,0836.6,5.01,000.00,029.0,027.5,000.0,037.4,030.5,12.9,0000.0,0003.79,0009.76,0003.48
2023-10-14 03:30:00,SystemResetWarning,0836.7,5.01,000.00,028.9,027.5,000.0,037.4,030.5,12.9,0000.0,0003.79,0009.72,0003.48
2023-10-14 03:31:00,SystemResetWarning,0836.7,5.00,000.00,028.9,027.4,000.0,037.4,030.5,12.9,0000.0,0003.79,0009.52,0003.47
2023-10-14 03:32:00,SystemResetWarning,0836.7,5.00,000.00,028.9,027.4,000.0,037.4,030.5,12.9,0000.0,0003.79,0009.53,0003.47
2023-10-14 03:33:00,SystemResetWarning,0836.7,5.00,000.00,028.9,027.4,000.0,037.4,030.5,12.9,0000.0,0003.83,0009.43,0003.47
2023-10-14 03:34:00,SystemResetWarning,0836.6,4.99,000.00,028.9,027.4,000.0,037.4,030.5,12.9,0000.0,0003.86,0009.47,0003.48
2023-10-14 03:35:00,SystemResetWarning,0836.6,5.00,000.00,028.9,027.4,000.0,037.4,030.4,12.9,0000.0,0003.90,0010.26,0003.50
2023-10-14 03:36:00,SystemResetWarning,0836.6,5.00,000.00,028.9,027.4,000.0,037.4,030.4,13.0,0000.0,0003.93,0009.98,0003.53
2023-10-14 03:37:00,SystemResetWarning,0836.7,5.00,000.00,028.9,027.4,000.0,037.4,030.4,13.0,0000.0,0003.97,0009.54,0003.55
2023-10-14 03:38:00,SystemResetWarning,0836.6,5.00,000.00,028.9,027.4,000.0,037.4,030.4,12.9,0000.0,0004.00,0009.69,0003.56
2023-10-14 03:39:00,SystemResetWarning,0836.7,5.00,000.00,028.9,027.4,000.0,037.4,030.4,12.9,0000.0,0004.05,0009.05,0003.58
2023-10-14 03:40:00,SystemResetWarning,0836.7,5.00,000.00,028.9,027.4,000.0,037.4,030.4,12.9,0000.0,0004.08,0009.16,0003.59
2023-10-14 03:41:00,SystemResetWarning,0836.7,5.00,000.00,028.9,027.4,000.0,037.4,030.4,13.0,0000.0,0004.10,0009.38,0003.60
2023-10-14 03:42:00,SystemResetWarning,0836.7,5.00,000.00,028.9,027.4,000.0,037.4,030.4,13.0,0000.0,0004.10,0009.66,0003.60
2023-10-14 03:43:00,SystemResetWarning,0836.7,5.00,000.00,028.9,027.4,000.0,037.4,030.4,13.0,0000.0,0004.13,0009.64,0003.62
2023-10-14 03:44:00,SystemResetWarning,0836.7,5.00,000.00,028.9,027.4,000.0,037.3,030.4,13.0,0000.0,0004.12,0009.59,0003.62
2023-10-14 03:45:00,SystemResetWarning,0836.7,4.98,000.00,028.9,027.4,000.0,037.3,030.4,13.0,0000.0,0004.14,0009.63,0003.63
2023-10-14 03:46:00,SystemResetWarning,0836.8,5.01,000.00,028.9,027.4,000.0,037.3,030.4,13.0,0000.0,0004.13,0009.61,0003.64
2023-10-14 03:47:00,SystemResetWarning,0836.8,5.01,000.00,028.9,027.4,000.0,037.3,030.4,13.0,0000.0,0004.11,0009.88,0003.63
2023-10-14 03:48:00,SystemResetWarning,0836.7,4.99,000.00,028.9,027.4,000.0,037.3,030.5,13.0,0000.0,0004.11,0009.87,0003.63
2023-10-14 03:49:00,SystemResetWarning,0836.7,5.00,000.00,028.9,027.4,000.0,037.3,030.5,13.0,0000.0,0004.13,0010.00,0003.64
2023-10-14 03:50:00,SystemResetWarning,0836.7,5.00,000.00,028.9,027.3,000.0,037.3,030.4,13.0,0000.0,0004.12,0010.17,0003.63
2023-10-14 03:51:00,SystemResetWarning,0836.8,5.00,000.00,028.9,027.3,000.0,037.3,030.4,13.0,0000.0,0004.10,0009.49,0003.63
2023-10-14 03:52:00,SystemResetWarning,0836.8,5.00,000.00,028.9,027.3,000.0,037.3,030.4,13.0,0000.0,0004.08,0009.29,0003.62
2023-10-14 03:53:00,SystemResetWarning,0836.8,5.00,000.00,028.9,027.3,000.0,037.3,030.4,13.0,0000.0,0004.09,0008.83,0003.63
2023-10-14 03:54:00,SystemResetWarning,0836.8,5.00,000.00,028.8,027.3,000.0,037.3,030.4,13.0,0000.0,0004.07,0008.81,0003.62
2023-10-14 03:55:00,SystemResetWarning,0836.8,4.99,000.00,028.8,027.3,000.0,037.3,030.4,13.0,0000.0,0004.05,0008.84,0003.62
2023-10-14 03:56:00,SystemResetWarning,0836.8,4.99,000.00,028.8,027.3,000.0,037.3,030.4,13.0,0000.0,0004.04,0008.89,0003.62
2023-10-14 03:57:00,SystemResetWarning,0836.8,5.00,000.00,028.8,027.3,000.0,037.3,030.4,13.0,0000.0,0004.05,0008.57,0003.61
2023-10-14 03:58:00,SystemResetWarning,0836.8,5.00,000.00,028.8,027.2,000.0,037.3,030.3,13.0,0000.0,0004.08,0008.05,0003.60
2023-10-14 03:59:00,SystemResetWarning,0836.8,5.01,000.00,028.8,027.2,000.0,037.3,030.3,13.0,0000.0,0004.07,0008.16,0003.59
